Starlink 2642

operational
NORAD ID: 48437 Int'l Des: 2021-040 Owner: SPXS Country: US Constellation: starlink
LEOCIRCULARSTARLINK_TYPE

About Starlink 2642

Description loading...

Live Position

Loading 3D Globe...

Upcoming Passes

Altitude History

Altitude vs Time

uPlot chart will show altitude changes over time

Two-Line Element Set

1 48437U 21040K 26035.17164156 -.00000548 00000-0 -17917-4 0 9998
2 48437 53.0557 342.0840 0001352 82.8051 277.3091 15.06419770261434
Epoch: Feb 4, 2026 • Age: 25 hours

Current Status

Altitude 547.8 km
Velocity 7.59 km/s
Sub-Earth Point 25.93°N, 68.98°W
Launch Date May 9, 2021
Age 4.7 years
Type internet

Technical Details

Classification Payload
Mass 260.00 kg
Dry Mass 248.00 kg
Total Mass 260.00 kg
Length 0.20 m
Diameter 2.80 m
Span 9.00 m
Shape Box + pan
Manufacturer SPXS
Bus Type Starlink
Phase Status In Orbit
Owner/State SPXS/US

Large Constellations

Loading constellations...